Terminal Aerodrome Forecast
Issued by NWS

Home | Current Version | Previous Version | Text Only | Print | Product List | Glossary On
Versions: 1 2 3 4 5 6 7 8 9 10 11 12 13 14 15 16 17 18 19
177
FTUS46 KMTR 250520
TAFOAK
TAF
KOAK 250520Z 2506/2612 26008KT P6SM OVC015
     FM251800 25011KT P6SM SCT020 SCT040
     FM252000 27015G22KT P6SM SCT050
     FM260300 27011KT P6SM SCT020
     FM260600 27008KT P6SM OVC015=

USA.gov is the U.S. government's official web portal to all federal, state and local government web resources and services.